DISCOBAY Weather Reports


time (UTC)temp
F
wind
direction
speed
knots
gust
knots
rain 1hr
in
rain 24hr
in
rain mn
in
humidity
%
barometer
mb
20260506191553 51 0 0.9 3.5 0.00 0.01 0.01 95 1021.0
20260506190058 51 298 1.7 3.5 0.00 0.01 0.01 95 1020.8
20260506184603 51 0 0.0 2.6 0.00 0.01 0.01 95 1020.7
20260506183101 51 0 0.0 1.7 0.00 0.01 0.01 95 1020.7
20260506181610 50 0 0.0 1.7 0.00 0.01 0.01 95 1020.8
20260506174555 50 0 0.0 2.6 0.01 0.01 0.01 95 1020.5
20260506173113 50 0 0.0 2.6 0.01 0.01 0.01 95 1020.4
20260506171600 50 0 0.0 2.6 0.01 0.01 0.01 95 1020.3
20260506164556 50 0 0.0 0.9 0.00 0.00 0.00 95 1020.2
20260506163104 50 0 0.0 0.9 0.00 0.00 0.00 95 1020.2
20260506161603 50 0 0.0 3.5 0.00 0.00 0.00 95 1020.1
20260506160056 50 34 0.0 1.7 0.00 0.00 0.00 94 1020.2
20260506154602 51 34 0.9 2.6 0.00 0.00 0.00 94 1020.0
20260506153053 52 0 0.0 0.0 0.00 0.00 0.00 95 1020.0
20260506151558 51 81 0.0 2.6 0.00 0.00 0.00 95 1019.7
20260506150053 51 0 0.0 0.0 0.00 0.00 0.00 95 1019.4
20260506144553 51 0 0.0 0.9 0.00 0.00 0.00 95 1019.3
20260506143052 51 0 0.0 0.9 0.00 0.00 0.00 95 1019.5
20260506141558 50 0 0.0 2.6 0.00 0.00 0.00 95 1019.4
20260506140100 50 0 0.0 1.7 0.00 0.00 0.00 95 1019.0
20260506134553 50 0 0.0 0.0 0.00 0.00 0.00 95 1019.1
20260506133102 50 0 0.0 1.7 0.00 0.00 0.00 94 1018.9
20260506131557 50 0 0.0 0.0 0.00 0.00 0.00 94 1018.9
20260506130055 50 0 0.0 0.9 0.00 0.00 0.00 94 1018.9
20260506124554 50 0 0.0 0.9 0.00 0.00 0.00 94 1018.9
20260506123052 50 0 0.0 2.6 0.00 0.00 0.00 94 1018.9
20260506121600 50 59 0.0 2.6 0.00 0.00 0.00 94 1018.8
20260506120109 50 59 0.9 3.5 0.00 0.00 0.00 93 1018.8
20260506114610 51 59 0.9 2.6 0.00 0.00 0.00 93 1018.8
20260506113053 51 0 0.0 0.0 0.00 0.00 0.00 93 1018.6
20260506111555 51 0 0.0 0.0 0.00 0.00 0.00 94 1018.6
20260506110054 51 0 0.0 1.7 0.00 0.00 0.00 94 1018.4
20260506104554 51 0 0.0 0.9 0.00 0.00 0.00 94 1018.2
20260506103054 51 0 0.0 0.0 0.00 0.00 0.00 94 1018.0
20260506101553 51 0 0.0 1.7 0.00 0.00 0.00 94 1017.9
20260506100053 51 0 0.0 1.7 0.00 0.00 0.00 94 1017.9
20260506094554 51 0 0.0 0.9 0.00 0.00 0.00 94 1017.9
20260506093110 50 0 0.0 0.0 0.00 0.00 0.00 94 1017.9
20260506091554 50 0 0.0 0.0 0.00 0.00 0.00 94 1017.9
20260506090113 50 0 0.0 0.0 0.00 0.00 0.00 94 1017.9
20260506084557 49 0 0.0 0.0 0.00 0.00 0.00 94 1017.8
20260506083054 49 0 0.0 0.0 0.00 0.00 0.00 93 1017.9
20260506081602 49 0 0.0 0.0 0.00 0.00 0.00 93 1017.7
20260506080111 49 0 0.0 0.0 0.00 0.00 0.00 93 1017.4
20260506073105 49 0 0.0 0.0 0.00 0.00 0.00 92 1017.1
20260506071554 50 0 0.0 0.0 0.00 0.00 0.00 91 1017.0
20260506061602 51 59 0.0 2.6 0.00 0.00 0.00 91 1016.7
20260506060201 51 59 0.0 2.6 0.00 0.00 0.00 91 1016.7
20260506044608 52 59 0.0 3.5 0.00 0.00 0.00 89 1016.4
20260506043055 52 59 1.7 3.5 0.00 0.00 0.00 88 1016.2
20260506041606 53 59 1.7 3.5 0.00 0.00 0.00 88 1016.0
20260506040101 53 59 0.9 2.6 0.00 0.00 0.00 87 1015.8
20260506034553 54 59 0.0 1.7 0.00 0.00 0.00 86 1015.6
20260506033055 54 0 0.0 2.6 0.00 0.00 0.00 85 1015.5
20260506031553 55 59 0.9 2.6 0.00 0.00 0.00 83 1015.5
20260506030054 56 0 0.0 1.7 0.00 0.00 0.00 82 1015.5
20260506024600 57 0 0.0 1.7 0.00 0.00 0.00 80 1015.6
20260506023056 58 59 0.0 1.7 0.00 0.00 0.00 79 1015.5
20260506021554 58 0 0.0 0.9 0.00 0.00 0.00 77 1015.6
20260506020121 59 0 0.0 1.7 0.00 0.00 0.00 76 1015.5
20260506014554 59 59 0.0 3.5 0.00 0.00 0.00 77 1015.6
20260506013051 59 0 0.0 2.6 0.00 0.00 0.00 76 1015.7
20260506011552 59 0 0.0 2.6 0.00 0.00 0.00 76 1015.7
20260506010055 60 321 0.0 2.6 0.00 0.00 0.00 76 1015.7
20260506004551 60 0 0.9 2.6 0.00 0.00 0.00 74 1015.8
20260506003056 61 0 0.0 2.6 0.00 0.00 0.00 74 1015.8
20260506001606 60 320 0.0 3.5 0.00 0.00 0.00 75 1015.7
20260506000122 61 0 0.9 2.6 0.00 0.00 0.00 74 1015.9
20260505234552 61 0 0.9 3.5 0.00 0.00 0.00 73 1016.0
20260505233056 61 285 0.9 2.6 0.00 0.00 0.00 75 1016.1
20260505231557 62 271 0.0 3.5 0.00 0.00 0.00 73 1016.2
20260505230054 63 332 1.7 5.2 0.00 0.00 0.00 73 1016.3
20260505224552 63 284 0.9 6.1 0.00 0.00 0.00 75 1016.3
20260505223105 62 290 1.7 7.8 0.00 0.00 0.00 76 1016.3
20260505221601 61 253 3.5 7.8 0.00 0.00 0.00 79 1016.3
20260505220105 61 265 4.3 7.8 0.00 0.00 0.00 79 1016.5
20260505214601 60 246 1.7 7.8 0.00 0.00 0.00 81 1016.8
20260505213052 60 249 3.5 7.0 0.00 0.00 0.00 80 1016.8
20260505211626 58 242 3.5 7.0 0.00 0.00 0.00 85 1016.8
20260505210100 57 242 3.5 6.1 0.00 0.00 0.00 86 1016.8
20260505204602 56 242 2.6 4.3 0.00 0.00 0.00 87 1016.9
20260505203056 55 244 2.6 4.3 0.00 0.00 0.00 88 1017.0
20260505201559 55 237 2.6 4.3 0.00 0.00 0.00 89 1017.0
20260505200059 55 236 2.6 6.1 0.00 0.00 0.00 89 1016.9
20260505194558 55 232 1.7 4.3 0.00 0.00 0.00 90 1017.0
20260505193056 54 229 2.6 4.3 0.00 0.00 0.00 90 1017.0